EW9839 Weather Reports


time (UTC)temp
C
wind
direction
speed
KPH
gust
KPH
rain 1hr
cm
rain 24hr
cm
rain mn
cm
humidity
%
barometer
mb
20260507051000 7 167 0.0 1.6 0.00 0.00 0.00 99 1035.4
20260507050456 7 171 1.6 3.2 0.00 0.00 0.00 99 1035.2
20260507045953 7 184 0.0 1.6 0.00 0.00 0.00 99 1035.3
20260507045449 7 184 0.0 0.0 0.00 0.00 0.00 99 1034.9
20260507044947 8 176 0.0 0.0 0.00 0.00 0.00 99 1035.0
20260507044444 8 180 0.0 0.0 0.00 0.00 0.00 99 1034.7
20260507043940 8 223 0.0 1.6 0.00 0.00 0.00 99 1035.0
20260507043436 8 202 0.0 0.0 0.00 0.00 0.00 99 1035.0
20260507042933 8 194 3.2 3.2 0.00 0.00 0.00 99 1035.2
20260507042430 8 230 1.6 1.6 0.00 0.00 0.00 99 1034.9
20260507041925 8 213 0.0 1.6 0.00 0.00 0.00 99 1035.0
20260507041422 8 249 3.2 3.2 0.00 0.00 0.00 99 1035.0
20260507040920 8 194 0.0 0.0 0.00 0.00 0.00 99 1035.1
20260507040415 8 222 0.0 1.6 0.00 0.00 0.00 99 1035.1
20260507035911 8 257 1.6 1.6 0.00 0.89 0.89 99 1035.0
20260507035408 9 195 1.6 1.6 0.00 0.89 0.89 99 1035.0
20260507034905 9 191 0.0 0.0 0.00 0.89 0.89 99 1034.8
20260507034401 9 207 0.0 1.6 0.00 0.89 0.89 99 1034.9
20260507033859 9 195 1.6 1.6 0.00 0.89 0.89 99 1034.5
20260507033357 10 202 0.0 1.6 0.00 0.89 0.89 99 1034.7
20260507032854 10 201 1.6 1.6 0.18 0.89 0.89 99 1035.0
20260507032351 10 223 1.6 1.6 0.48 0.89 0.89 99 1034.9
20260507031847 10 187 3.2 3.2 0.48 0.86 0.86 99 1034.9
20260507031344 10 281 1.6 3.2 0.30 0.81 0.81 99 1034.9
20260507030840 10 192 0.0 0.0 0.13 0.79 0.79 99 1035.2
20260507030338 11 234 1.6 3.2 0.00 0.76 0.76 99 1035.0
20260507025834 11 203 1.6 1.6 0.18 0.76 0.76 99 1034.9
20260507025332 12 203 3.2 4.8 0.18 0.76 0.76 99 1034.6
20260507024830 12 223 1.6 3.2 0.13 0.74 0.74 99 1035.1
20260507024327 12 206 0.0 0.0 0.13 0.74 0.74 99 1034.7
20260507023822 12 234 1.6 1.6 0.18 0.71 0.71 99 1034.6
20260507023319 12 197 0.0 0.0 0.18 0.71 0.71 99 1034.5
20260507022817 12 194 0.0 0.0 0.00 0.69 0.69 99 1034.4
20260507022313 13 195 1.6 1.6 0.00 0.69 0.69 99 1034.4
20260507021809 13 207 0.0 1.6 0.00 0.69 0.69 99 1034.3
20260507021305 13 198 0.0 0.0 0.00 0.69 0.69 99 1034.1
20260507020803 13 197 1.6 3.2 0.13 0.69 0.69 99 1034.0
20260507020259 14 202 3.2 3.2 0.13 0.69 0.69 99 1034.1
20260507015757 14 201 0.0 0.0 0.30 0.66 0.66 99 1034.0
20260507015254 14 198 0.0 0.0 0.48 0.66 0.66 99 1034.0
20260507014751 14 196 0.0 1.6 0.18 0.61 0.61 99 1033.9
20260507014247 14 185 1.6 3.2 0.00 0.58 0.58 99 1033.8
20260507013744 14 143 0.0 1.6 0.00 0.58 0.58 99 1034.0
20260507013241 14 177 1.6 1.6 0.00 0.58 0.58 99 1034.0
20260507012739 14 224 1.6 1.6 0.00 0.58 0.58 99 1033.9
20260507012234 14 190 0.0 0.0 0.00 0.58 0.58 99 1033.7
20260507011732 14 203 0.0 0.0 0.00 0.58 0.58 99 1033.8
20260507011228 14 175 1.6 3.2 0.00 0.58 0.58 99 1034.1
20260507010728 14 234 4.8 4.8 0.00 0.58 0.58 99 1033.9
20260507010224 14 189 0.0 0.0 0.00 0.58 0.58 99 1033.9
20260507005722 14 183 1.6 1.6 0.00 0.58 0.58 99 1034.1
20260507005218 14 196 0.0 1.6 0.00 0.58 0.58 99 1033.8
20260507004714 14 207 1.6 3.2 0.00 0.58 0.58 99 1034.0
20260507004212 14 185 0.0 0.0 0.00 0.58 0.58 99 1033.8
20260507003708 14 206 1.6 1.6 0.00 0.58 0.58 99 1033.9
20260507003203 14 195 0.0 0.0 0.00 0.58 0.58 99 1033.7
20260507002700 14 191 0.0 1.6 0.00 0.58 0.58 99 1033.8
20260507002156 14 194 1.6 3.2 0.00 0.58 0.58 99 1033.8
20260507001653 14 211 0.0 0.0 0.00 0.58 0.58 99 1034.0
20260507001150 14 195 0.0 0.0 0.00 0.58 0.58 99 1033.8
20260507000646 14 177 0.0 1.6 0.00 0.58 0.58 99 1033.8
20260507000142 14 216 1.6 1.6 0.00 0.58 0.58 99 1033.6
20260506235639 14 210 0.0 1.6 0.00 0.58 0.58 99 1033.6
20260506235139 14 194 1.6 1.6 0.00 0.58 0.58 99 1033.5
20260506234637 14 187 1.6 1.6 0.00 0.58 0.58 99 1033.4
20260506234134 14 191 3.2 4.8 0.00 0.58 0.58 99 1033.5
20260506233631 14 202 3.2 3.2 0.00 0.58 0.58 99 1033.6
20260506233128 14 162 0.0 3.2 0.00 0.58 0.58 99 1033.5
20260506232624 14 169 3.2 4.8 0.00 0.58 0.58 99 1033.6
20260506232120 14 236 3.2 3.2 0.00 0.58 0.58 99 1033.6
20260506231617 14 217 1.6 1.6 0.00 0.58 0.58 99 1033.7
20260506231115 14 179 3.2 3.2 0.00 0.58 0.58 99 1033.7
20260506230612 14 180 4.8 8.0 0.00 0.58 0.58 99 1033.7
20260506230109 14 231 4.8 8.0 0.00 0.58 0.58 99 1033.5
20260506225605 14 186 0.0 1.6 0.00 0.58 0.58 99 1033.8
20260506225102 14 190 0.0 0.0 0.00 0.58 0.58 99 1033.8
20260506224559 14 167 1.6 1.6 0.00 0.58 0.58 99 1033.6
20260506224055 14 193 0.0 0.0 0.00 0.58 0.58 99 1033.7
20260506223551 14 229 4.8 8.0 0.00 0.58 0.58 99 1033.8
20260506223048 14 160 3.2 4.8 0.00 0.58 0.58 99 1033.9
20260506222544 14 192 0.0 0.0 0.00 0.58 0.58 99 1033.9
20260506222041 14 194 1.6 3.2 0.00 0.58 0.58 99 1034.0
20260506221539 14 183 1.6 1.6 0.00 0.58 0.58 99 1034.0
20260506221036 14 215 3.2 4.8 0.00 0.58 0.58 99 1034.0
20260506220532 15 276 6.4 12.9 0.00 0.58 0.58 99 1033.9
20260506220028 15 240 4.8 9.7 0.00 0.58 0.58 99 1033.9
20260506215525 15 283 3.2 3.2 0.00 0.58 0.58 99 1034.0
20260506215020 15 220 1.6 3.2 0.00 0.58 0.58 99 1033.9
20260506214518 15 192 0.0 0.0 0.00 0.58 0.58 99 1033.9
20260506214015 15 208 3.2 4.8 0.13 0.58 0.58 99 1033.9
20260506213513 15 239 1.6 1.6 0.13 0.58 0.58 99 1034.0
20260506213010 15 248 4.8 4.8 0.00 0.56 0.56 99 1034.2
20260506212506 15 273 3.2 3.2 0.00 0.56 0.56 99 1034.1
20260506212001 15 225 4.8 8.0 0.00 0.56 0.56 99 1034.3
20260506211457 15 184 1.6 3.2 0.18 0.56 0.56 99 1034.1
20260506210955 15 222 4.8 8.0 0.18 0.56 0.56 99 1034.2
20260506210451 15 191 1.6 3.2 0.00 0.53 0.53 99 1034.4
20260506205948 15 201 1.6 1.6 0.00 0.53 0.53 99 1034.3
20260506205444 15 173 1.6 1.6 0.00 0.53 0.53 99 1034.2
20260506204940 15 208 3.2 4.8 0.00 0.53 0.53 99 1034.2
20260506204438 15 254 3.2 3.2 0.18 0.53 0.53 99 1034.2
20260506203935 15 180 4.8 8.0 0.18 0.53 0.53 99 1034.4
20260506203432 15 253 3.2 4.8 0.00 0.51 0.51 99 1034.5
20260506202929 15 8 6.4 9.7 0.00 0.51 0.51 99 1034.5
20260506202427 15 178 0.0 0.0 0.13 0.51 0.51 99 1034.8
20260506201923 15 211 4.8 8.0 0.13 0.51 0.51 99 1034.7
20260506201421 15 174 0.0 1.6 0.18 0.48 0.48 99 1034.8
20260506200917 15 191 0.0 0.0 0.30 0.48 0.48 99 1034.8
20260506200413 15 196 1.6 1.6 0.13 0.46 0.46 99 1034.8
20260506195910 15 191 0.0 0.0 0.30 0.46 0.46 99 1034.8
20260506195407 15 223 0.0 1.6 0.18 0.43 0.43 99 1034.9
20260506194904 15 219 0.0 1.6 0.00 0.41 0.41 99 1034.7
20260506194401 15 194 0.0 0.0 0.00 0.41 0.41 99 1034.7
20260506193858 15 197 0.0 1.6 0.00 0.41 0.41 99 1034.8
20260506193354 15 151 1.6 3.2 0.00 0.41 0.41 99 1034.6
20260506192851 15 183 1.6 3.2 0.13 0.41 0.41 99 1034.8
20260506192348 15 224 3.2 3.2 0.13 0.41 0.41 99 1034.8
20260506191845 15 177 1.6 1.6 0.00 0.38 0.38 99 1034.9
20260506191341 15 197 0.0 1.6 0.00 0.38 0.38 99 1034.8
20260506190838 15 190 0.0 0.0 0.18 0.38 0.38 99 1034.7
20260506190334 15 188 0.0 0.0 0.18 0.38 0.38 99 1035.0
20260506185831 15 199 1.6 1.6 0.13 0.36 0.36 99 1035.5
20260506185328 15 241 0.0 1.6 0.30 0.36 0.36 99 1035.4
20260506184825 15 190 0.0 0.0 0.30 0.33 0.33 99 1035.4
20260506184322 15 192 0.0 0.0 0.30 0.30 0.30 99 1035.7
20260506183820 15 192 0.0 1.6 0.30 0.28 0.28 99 1035.8
20260506183314 16 206 0.0 0.0 0.30 0.25 0.25 99 1035.6
20260506182812 16 200 0.0 0.0 0.36 0.23 0.23 99 1035.7
20260506182309 16 198 0.0 0.0 0.30 0.20 0.20 98 1035.8
20260506181807 16 185 0.0 0.0 0.30 0.18 0.18 98 1035.7
20260506181305 16 190 0.0 1.6 0.30 0.15 0.15 97 1036.0
20260506180802 16 192 0.0 0.0 0.30 0.13 0.13 97 1036.1
20260506180257 16 192 0.0 0.0 0.30 0.10 0.10 95 1035.9
20260506175754 17 181 1.6 8.0 0.30 0.08 0.08 93 1035.8
20260506175251 17 181 1.6 3.2 0.30 0.05 0.05 89 1036.0
20260506174748 18 186 1.6 1.6 0.00 0.00 0.00 85 1035.8
20260506174245 19 126 6.4 11.3 0.00 0.00 0.00 80 1035.8
20260506173743 19 244 1.6 1.6 0.00 0.00 0.00 78 1035.5
20260506173240 20 205 1.6 1.6 0.00 0.00 0.00 74 1035.5
20260506172736 20 194 3.2 4.8 0.00 0.00 0.00 71 1035.5
20260506172233 20 238 1.6 1.6 0.00 0.00 0.00 72 1035.4
20260506171731 20 174 1.6 1.6 0.00 0.00 0.00 71 1035.4
20260506171228 20 212 4.8 4.8 0.00 0.00 0.00 71 1035.3
20260506170726 20 173 1.6 3.2 0.00 0.00 0.00 71 1035.5
20260506170222 20 198 8.0 11.3 0.00 0.00 0.00 70 1035.6
20260506165720 20 232 3.2 8.0 0.00 0.00 0.00 70 1035.4
20260506165217 20 309 6.4 8.0 0.00 0.00 0.00 70 1035.6
20260506164714 20 234 1.6 3.2 0.00 0.00 0.00 70 1035.6
20260506164211 20 201 1.6 1.6 0.00 0.00 0.00 71 1035.9
20260506163708 20 187 4.8 8.0 0.00 0.00 0.00 70 1035.7
20260506163203 20 165 4.8 4.8 0.00 0.00 0.00 70 1036.1
20260506162659 20 179 0.0 1.6 0.00 0.00 0.00 69 1035.8
20260506162157 20 284 0.0 1.6 0.00 0.00 0.00 70 1036.0
20260506161654 20 190 0.0 0.0 0.00 0.00 0.00 72 1036.2
20260506161150 20 192 1.6 1.6 0.00 0.00 0.00 72 1036.4
20260506160648 20 186 1.6 1.6 0.00 0.00 0.00 73 1036.5
20260506160145 20 180 4.8 4.8 0.00 0.00 0.00 72 1036.6
20260506155643 20 223 3.2 4.8 0.00 0.00 0.00 73 1036.7
20260506155140 19 193 3.2 3.2 0.00 0.00 0.00 75 1037.0
20260506153242 19 188 1.6 3.2 0.00 0.00 0.00 75 1037.0
20260506152739 19 212 0.0 1.6 0.00 0.00 0.00 75 1037.1
20260506152236 19 176 1.6 1.6 0.00 0.00 0.00 76 1037.4
20260506151735 19 196 0.0 1.6 0.00 0.00 0.00 76 1037.5
20260506151231 19 204 0.0 0.0 0.00 0.00 0.00 76 1037.6
20260506150728 19 242 3.2 3.2 0.00 0.00 0.00 76 1037.1
20260506150225 19 301 4.8 4.8 0.00 0.00 0.00 75 1037.0
20260506145722 19 63 1.6 1.6 0.00 0.00 0.00 76 1037.3
20260506145219 19 202 0.0 1.6 0.00 0.00 0.00 76 1037.5
20260506144716 19 185 3.2 4.8 0.00 0.00 0.00 76 1037.4
20260506144213 19 197 4.8 4.8 0.00 0.00 0.00 76 1036.9
20260506143710 18 246 3.2 4.8 0.00 0.00 0.00 77 1037.3
20260506143208 19 205 4.8 8.0 0.00 0.00 0.00 77 1037.0
20260506142707 18 201 1.6 1.6 0.00 0.00 0.00 78 1037.0
20260506142204 18 242 6.4 11.3 0.00 0.00 0.00 78 1037.4
20260506141702 18 192 0.0 1.6 0.00 0.00 0.00 78 1037.1
20260506141200 18 207 1.6 1.6 0.00 0.00 0.00 79 1036.7
20260506140657 18 205 0.0 0.0 0.00 0.00 0.00 79 1037.1
20260506140154 18 171 3.2 3.2 0.00 0.00 0.00 80 1036.9
20260506135651 18 304 4.8 4.8 0.00 0.00 0.00 80 1037.0
20260506135147 17 194 0.0 0.0 0.00 0.00 0.00 81 1037.0
20260506134644 17 215 1.6 1.6 0.00 0.00 0.00 82 1037.3
20260506134140 17 186 3.2 3.2 0.00 0.00 0.00 82 1037.3
20260506133637 17 198 0.0 0.0 0.00 0.00 0.00 83 1037.1
20260506133134 17 174 3.2 3.2 0.00 0.00 0.00 83 1037.4
20260506132632 17 181 0.0 1.6 0.00 0.00 0.00 83 1037.4
20260506132128 17 180 1.6 3.2 0.00 0.00 0.00 84 1037.6
20260506131626 16 189 0.0 0.0 0.00 0.00 0.00 84 1037.5
20260506131121 16 223 1.6 3.2 0.00 0.00 0.00 84 1037.4
20260506130619 16 199 3.2 4.8 0.00 0.00 0.00 84 1037.5
20260506130116 16 204 0.0 1.6 0.00 0.00 0.00 84 1037.6
20260506125614 16 196 0.0 1.6 0.00 0.00 0.00 84 1037.7
20260506125112 16 208 1.6 1.6 0.00 0.00 0.00 84 1037.5
20260506124609 16 188 1.6 1.6 0.00 0.00 0.00 84 1037.5
20260506124107 16 278 3.2 3.2 0.00 0.00 0.00 85 1037.6
20260506123604 16 193 1.6 1.6 0.00 0.00 0.00 85 1037.7
20260506123103 16 241 3.2 3.2 0.00 0.00 0.00 85 1037.6
20260506122559 16 177 3.2 4.8 0.00 0.00 0.00 85 1037.5
20260506122057 16 201 1.6 3.2 0.00 0.00 0.00 86 1037.6
20260506121554 16 206 3.2 3.2 0.00 0.00 0.00 85 1037.4
20260506121050 16 289 3.2 3.2 0.00 0.00 0.00 85 1037.8
20260506120549 16 159 4.8 9.7 0.00 0.00 0.00 85 1037.7
20260506120046 16 186 0.0 1.6 0.00 0.00 0.00 86 1037.9
20260506115544 15 271 1.6 3.2 0.00 0.00 0.00 86 1037.7
20260506115042 15 244 3.2 8.0 0.00 0.00 0.00 87 1037.6
20260506114539 15 212 0.0 1.6 0.00 0.00 0.00 87 1037.9
20260506114037 15 196 0.0 0.0 0.00 0.00 0.00 86 1038.1
20260506113535 15 349 3.2 3.2 0.00 0.00 0.00 87 1037.8
20260506113032 15 218 6.4 8.0 0.00 0.00 0.00 87 1038.0
20260506112528 15 289 4.8 8.0 0.00 0.00 0.00 87 1038.0
20260506112026 15 181 1.6 1.6 0.00 0.00 0.00 88 1037.8
20260506111524 15 209 1.6 1.6 0.00 0.00 0.00 88 1038.1
20260506111021 15 225 1.6 1.6 0.00 0.00 0.00 88 1038.1
20260506110518 15 191 1.6 1.6 0.00 0.00 0.00 89 1038.0
20260506110015 15 184 0.0 1.6 0.00 0.00 0.00 89 1037.9
20260506105511 14 192 0.0 0.0 0.00 0.00 0.00 90 1038.2
20260506105009 14 190 0.0 0.0 0.00 0.00 0.00 90 1038.1
20260506104507 13 187 0.0 0.0 0.00 0.00 0.00 91 1038.1
20260506104005 13 182 1.6 1.6 0.00 0.00 0.00 91 1038.0
20260506103501 13 212 0.0 0.0 0.00 0.00 0.00 91 1038.2
20260506102958 13 186 0.0 0.0 0.00 0.00 0.00 92 1037.9
20260506102456 13 163 0.0 0.0 0.00 0.00 0.00 91 1037.9
20260506101953 14 190 1.6 3.2 0.00 0.00 0.00 90 1038.0
20260506101449 13 190 0.0 0.0 0.00 0.00 0.00 90 1038.0
20260506100947 13 244 4.8 4.8 0.00 0.00 0.00 91 1038.0
20260506100446 13 183 0.0 0.0 0.00 0.00 0.00 91 1038.0
20260506095943 13 187 0.0 0.0 0.00 0.00 0.00 91 1037.9
20260506095442 13 163 0.0 0.0 0.00 0.00 0.00 91 1037.9
20260506094937 13 200 1.6 1.6 0.00 0.00 0.00 91 1037.8
20260506094436 13 213 0.0 1.6 0.00 0.00 0.00 92 1037.9
20260506093933 13 191 0.0 0.0 0.00 0.00 0.00 91 1038.0
20260506093431 13 195 0.0 1.6 0.00 0.00 0.00 91 1038.0
20260506092928 12 191 0.0 1.6 0.00 0.00 0.00 92 1037.9
20260506092426 12 182 0.0 0.0 0.00 0.00 0.00 93 1037.8
20260506091922 12 185 0.0 0.0 0.00 0.00 0.00 93 1038.0
20260506091421 12 186 0.0 0.0 0.00 0.00 0.00 93 1037.8
20260506090918 12 191 0.0 0.0 0.00 0.00 0.00 94 1037.9
20260506090415 12 184 0.0 0.0 0.00 0.00 0.00 94 1037.8
20260506085912 12 188 0.0 0.0 0.00 0.00 0.00 94 1038.0
20260506085409 12 183 0.0 0.0 0.00 0.00 0.00 94 1037.8
20260506084905 12 184 0.0 0.0 0.00 0.00 0.00 94 1038.0
20260506084402 12 184 0.0 0.0 0.00 0.00 0.00 93 1038.1
20260506083858 12 190 0.0 0.0 0.00 0.00 0.00 93 1037.8
20260506083356 12 186 0.0 0.0 0.00 0.00 0.00 93 1038.2
20260506082853 12 185 0.0 0.0 0.00 0.00 0.00 93 1038.0
20260506082349 12 184 0.0 0.0 0.00 0.00 0.00 93 1037.9
20260506081845 12 184 0.0 0.0 0.00 0.00 0.00 93 1037.8
20260506081344 12 185 0.0 0.0 0.00 0.00 0.00 93 1038.0
20260506080841 12 184 0.0 0.0 0.00 0.00 0.00 93 1037.9
20260506080337 12 179 0.0 1.6 0.00 0.00 0.00 92 1037.9
20260506073322 13 197 0.0 0.0 0.00 0.00 0.00 88 1037.7
20260506072818 13 192 0.0 0.0 0.00 0.00 0.00 88 1037.8
20260506072316 13 196 0.0 0.0 0.00 0.00 0.00 88 1037.7
20260506071814 14 197 0.0 0.0 0.00 0.00 0.00 86 1037.7
20260506071312 14 201 0.0 0.0 0.00 0.00 0.00 85 1037.6
20260506070808 15 202 0.0 0.0 0.00 0.00 0.00 84 1037.4
20260506070305 15 199 0.0 0.0 0.00 0.00 0.00 84 1037.5
20260506062242 15 218 1.6 1.6 0.00 0.00 0.00 77 1037.4
20260506061738 16 209 1.6 1.6 0.00 0.00 0.00 78 1037.3
20260506061236 15 223 1.6 1.6 0.00 0.00 0.00 77 1037.4
20260506060734 16 214 1.6 1.6 0.00 0.00 0.00 78 1037.3
20260506060231 16 210 4.8 4.8 0.00 0.00 0.00 77 1037.6
20260506051203 16 191 1.6 3.2 0.00 0.00 0.00 78 1037.8